ANGEL12 KVAD-KTTS

Flight info

Callsign ANGEL12
Flight time 1h 12m
Altitude 5000
Route //
Aircraft HH60/L-V/N

Departure

Time 2026-05-08 15:33
Airport Moody Air Force Base (KVAD)

Arrival

Time 2026-05-08 16:45
Airport Space Florida Launch and Landing Facility (KTTS)
Time Latitude Longitude Altitude Speed Heading
2026-05-08 15:23 30.97275 -83.19716 232 ft 0 kts 89°
2026-05-08 15:30 30.97275 -83.19709 234 ft 4 kts 65°
2026-05-08 15:30 30.97312 -83.19696 232 ft 7 kts 359°
2026-05-08 15:30 30.97357 -83.19695 233 ft 7 kts 359°
2026-05-08 15:31 30.97404 -83.19696 233 ft 7 kts
2026-05-08 15:31 30.97452 -83.19696 233 ft 7 kts
2026-05-08 15:31 30.97484 -83.19665 234 ft 7 kts 88°
2026-05-08 15:31 30.97483 -83.19604 234 ft 8 kts 90°
2026-05-08 15:32 30.97476 -83.19534 236 ft 9 kts 145°
2026-05-08 15:32 30.97412 -83.19527 242 ft 7 kts 176°
2026-05-08 15:32 30.97199 -83.19480 337 ft 66 kts 155°
2026-05-08 15:32 30.96613 -83.19212 742 ft 113 kts 141°
2026-05-08 15:33 30.95822 -83.18697 914 ft 144 kts 140°
2026-05-08 15:33 30.94887 -83.18129 1127 ft 154 kts 145°
2026-05-08 15:33 30.93921 -83.17534 1320 ft 163 kts 141°
2026-05-08 15:33 30.92956 -83.16883 1335 ft 162 kts 141°
2026-05-08 15:34 30.91927 -83.16226 1353 ft 174 kts 144°
2026-05-08 15:34 30.90861 -83.15576 1371 ft 162 kts 143°
2026-05-08 15:34 30.89928 -83.15027 1378 ft 140 kts 139°
2026-05-08 15:34 30.89044 -83.14456 1365 ft 158 kts 137°
2026-05-08 15:35 30.88049 -83.13838 1370 ft 156 kts 141°
2026-05-08 15:35 30.87037 -83.13282 1356 ft 160 kts 143°
2026-05-08 15:35 30.85996 -83.12773 1351 ft 162 kts 146°
2026-05-08 15:35 30.84947 -83.12275 1341 ft 171 kts 148°
2026-05-08 15:36 30.84205 -83.11936 1354 ft 167 kts 150°
2026-05-08 15:36 30.83132 -83.11499 1345 ft 164 kts 152°
2026-05-08 15:36 30.81754 -83.10843 1346 ft 161 kts 145°
2026-05-08 15:36 30.80721 -83.10352 1344 ft 162 kts 147°
2026-05-08 15:37 30.80036 -83.10021 1351 ft 154 kts 144°
2026-05-08 15:37 30.79090 -83.09475 1343 ft 158 kts 142°
2026-05-08 15:37 30.78075 -83.08895 1338 ft 160 kts 145°
2026-05-08 15:37 30.77035 -83.08290 1338 ft 172 kts 140°
2026-05-08 15:38 30.75983 -83.07565 1336 ft 178 kts 139°
2026-05-08 15:38 30.74943 -83.06785 1327 ft 178 kts 137°
2026-05-08 15:38 30.73951 -83.06020 1329 ft 155 kts 135°
2026-05-08 15:38 30.73107 -83.05402 1332 ft 134 kts 135°
2026-05-08 15:39 30.72332 -83.04859 1285 ft 141 kts 135°
2026-05-08 15:39 30.71416 -83.04132 1269 ft 169 kts 134°
2026-05-08 15:39 30.70513 -83.03316 1439 ft 167 kts 131°
2026-05-08 15:39 30.69690 -83.02290 1544 ft 169 kts 123°
2026-05-08 15:40 30.68928 -83.01363 1566 ft 162 kts 124°
2026-05-08 15:40 30.68105 -83.00411 1569 ft 170 kts 128°
2026-05-08 15:40 30.67247 -82.99464 1570 ft 168 kts 128°
2026-05-08 15:40 30.66363 -82.98538 1569 ft 172 kts 130°
2026-05-08 15:41 30.65461 -82.97639 1569 ft 169 kts 131°
2026-05-08 15:41 30.64540 -82.96770 1568 ft 172 kts 133°
2026-05-08 15:41 30.63598 -82.95926 1569 ft 170 kts 134°
2026-05-08 15:41 30.62648 -82.95118 1569 ft 170 kts 136°
2026-05-08 15:42 30.61670 -82.94333 1555 ft 173 kts 137°
2026-05-08 15:42 30.60675 -82.93577 1555 ft 171 kts 139°
2026-05-08 15:42 30.59665 -82.92852 1556 ft 170 kts 141°
2026-05-08 15:42 30.58631 -82.92152 1569 ft 173 kts 142°
2026-05-08 15:43 30.57584 -82.91484 1567 ft 172 kts 143°
2026-05-08 15:43 30.56520 -82.90846 1560 ft 173 kts 145°
2026-05-08 15:43 30.55441 -82.90240 1565 ft 174 kts 148°
2026-05-08 15:43 30.54343 -82.89661 1568 ft 174 kts 148°
2026-05-08 15:44 30.53231 -82.89115 1560 ft 173 kts 150°
2026-05-08 15:44 30.52125 -82.88609 1558 ft 172 kts 150°
2026-05-08 15:44 30.50993 -82.88130 1550 ft 173 kts 152°
2026-05-08 15:44 30.49850 -82.87684 1556 ft 173 kts 153°
2026-05-08 15:45 30.48693 -82.87270 1551 ft 174 kts 155°
2026-05-08 15:45 30.47522 -82.86888 1552 ft 177 kts 158°
2026-05-08 15:45 30.46342 -82.86539 1574 ft 176 kts 158°
2026-05-08 15:45 30.45166 -82.86231 1551 ft 174 kts 160°
2026-05-08 15:46 30.44005 -82.85902 1568 ft 169 kts 153°
2026-05-08 15:46 30.42905 -82.85434 1578 ft 168 kts 152°
2026-05-08 15:46 30.41792 -82.85002 1532 ft 171 kts 154°
2026-05-08 15:46 30.40659 -82.84604 1541 ft 172 kts 155°
2026-05-08 15:47 30.39515 -82.84245 1536 ft 170 kts 158°
2026-05-08 15:47 30.38379 -82.83931 1531 ft 169 kts 159°
2026-05-08 15:47 30.37222 -82.83654 1539 ft 170 kts 161°
2026-05-08 15:47 30.36136 -82.83225 1382 ft 164 kts 143°
2026-05-08 15:48 30.34453 -82.81521 1152 ft 160 kts 128°
2026-05-08 15:48 30.33614 -82.80677 1123 ft 162 kts 131°
2026-05-08 15:48 30.32745 -82.79865 1186 ft 162 kts 132°
2026-05-08 15:49 30.31856 -82.79082 1166 ft 159 kts 133°
2026-05-08 15:49 30.30984 -82.78256 1158 ft 168 kts 131°
2026-05-08 15:49 30.30080 -82.77359 1154 ft 165 kts 130°
2026-05-08 15:49 30.29277 -82.76546 1162 ft 155 kts 128°
2026-05-08 15:50 30.28435 -82.75719 1176 ft 160 kts 131°
2026-05-08 15:50 30.27552 -82.74919 1155 ft 162 kts 135°
2026-05-08 15:50 30.26645 -82.74157 1164 ft 163 kts 136°
2026-05-08 15:50 30.25713 -82.73436 1232 ft 161 kts 138°
2026-05-08 15:51 30.24754 -82.72754 1221 ft 164 kts 141°
2026-05-08 15:51 30.23781 -82.72120 1165 ft 162 kts 142°
2026-05-08 15:51 30.22776 -82.71521 1197 ft 162 kts 144°
2026-05-08 15:51 30.21746 -82.70961 1213 ft 164 kts 146°
2026-05-08 15:52 30.20714 -82.70454 1259 ft 163 kts 149°
2026-05-08 15:52 30.19645 -82.69982 1195 ft 165 kts 152°
2026-05-08 15:52 30.18560 -82.69554 1238 ft 164 kts 153°
2026-05-08 15:52 30.17476 -82.69171 1216 ft 159 kts 153°
2026-05-08 15:53 30.16435 -82.68659 1528 ft 168 kts 147°
2026-05-08 15:53 30.15380 -82.67928 1811 ft 183 kts 139°
2026-05-08 15:53 30.14343 -82.67015 1337 ft 187 kts 134°
2026-05-08 15:53 30.13385 -82.66014 1416 ft 189 kts 130°
2026-05-08 15:54 30.12496 -82.64916 1507 ft 182 kts 123°
2026-05-08 15:54 30.11667 -82.63818 1506 ft 180 kts 124°
2026-05-08 15:54 30.10821 -82.62748 1518 ft 179 kts 125°
2026-05-08 15:54 30.09958 -82.61706 1561 ft 179 kts 127°
2026-05-08 15:55 30.09073 -82.60684 1508 ft 180 kts 128°
2026-05-08 15:55 30.07252 -82.58717 1521 ft 179 kts 130°
2026-05-08 15:55 30.06303 -82.57759 1574 ft 181 kts 132°
2026-05-08 15:56 30.05341 -82.56830 1570 ft 180 kts 134°
2026-05-08 15:56 30.04375 -82.55938 1545 ft 180 kts 134°
2026-05-08 15:56 30.03380 -82.55063 1522 ft 180 kts 135°
2026-05-08 15:56 30.02369 -82.54212 1483 ft 181 kts 137°
2026-05-08 15:57 30.01331 -82.53379 1555 ft 181 kts 138°
2026-05-08 15:57 30.00283 -82.52576 1536 ft 181 kts 140°
2026-05-08 15:57 29.99263 -82.51727 1560 ft 182 kts 135°
2026-05-08 15:57 29.98298 -82.50767 1552 ft 182 kts 131°
2026-05-08 15:58 29.97411 -82.49717 1546 ft 187 kts 126°
2026-05-08 15:58 29.96559 -82.48580 1534 ft 182 kts 124°
2026-05-08 15:58 29.95747 -82.47483 1540 ft 182 kts 122°
2026-05-08 15:58 29.94981 -82.46309 1545 ft 183 kts 119°
2026-05-08 15:59 29.94249 -82.45148 1472 ft 180 kts 120°
2026-05-08 15:59 29.93487 -82.43995 1488 ft 181 kts 121°
2026-05-08 15:59 29.92703 -82.42861 1467 ft 182 kts 122°
2026-05-08 15:59 29.91895 -82.41744 1465 ft 180 kts 124°
2026-05-08 16:00 29.91069 -82.40656 1469 ft 180 kts 125°
2026-05-08 16:00 29.90229 -82.39581 1499 ft 181 kts 125°
2026-05-08 16:00 29.89371 -82.38518 1508 ft 181 kts 126°
2026-05-08 16:00 29.88493 -82.37480 1523 ft 181 kts 128°
2026-05-08 16:01 29.87595 -82.36464 1492 ft 182 kts 129°
2026-05-08 16:01 29.86679 -82.35473 1528 ft 181 kts 131°
2026-05-08 16:01 29.85740 -82.34503 1535 ft 182 kts 131°
2026-05-08 16:01 29.84782 -82.33554 1501 ft 183 kts 132°
2026-05-08 16:02 29.83818 -82.32587 1477 ft 186 kts 132°
2026-05-08 16:02 29.82840 -82.31638 1557 ft 182 kts 134°
2026-05-08 16:02 29.81849 -82.30717 1526 ft 183 kts 135°
2026-05-08 16:02 29.80849 -82.29828 1557 ft 183 kts 136°
2026-05-08 16:03 29.79824 -82.28957 1555 ft 183 kts 137°
2026-05-08 16:03 29.78780 -82.28109 1580 ft 182 kts 140°
2026-05-08 16:03 29.77728 -82.27294 1582 ft 182 kts 140°
2026-05-08 16:03 29.76665 -82.26510 1581 ft 182 kts 142°
2026-05-08 16:04 29.75624 -82.25723 1581 ft 174 kts 136°
2026-05-08 16:04 29.74765 -82.24784 1575 ft 167 kts 127°
2026-05-08 16:04 29.73933 -82.23861 1552 ft 169 kts 128°
2026-05-08 16:04 29.73055 -82.22949 1534 ft 172 kts 130°
2026-05-08 16:05 29.72141 -82.22056 1506 ft 168 kts 133°
2026-05-08 16:05 29.71220 -82.21220 1528 ft 173 kts 136°
2026-05-08 16:05 29.70264 -82.20414 1510 ft 170 kts 137°
2026-05-08 16:05 29.69280 -82.19644 1497 ft 170 kts 140°
2026-05-08 16:06 29.68273 -82.18916 1514 ft 171 kts 141°
2026-05-08 16:06 29.67253 -82.18237 1537 ft 168 kts 144°
2026-05-08 16:06 29.66208 -82.17598 1508 ft 168 kts 146°
2026-05-08 16:06 29.65150 -82.17007 1524 ft 169 kts 148°
2026-05-08 16:07 29.64089 -82.16467 1506 ft 170 kts 151°
2026-05-08 16:07 29.62998 -82.15964 1518 ft 170 kts 152°
2026-05-08 16:07 29.61887 -82.15504 1493 ft 170 kts 155°
2026-05-08 16:07 29.60768 -82.15093 1500 ft 168 kts 158°
2026-05-08 16:08 29.59643 -82.14731 1499 ft 168 kts 160°
2026-05-08 16:08 29.58512 -82.14417 1527 ft 165 kts 161°
2026-05-08 16:08 29.57374 -82.14152 1502 ft 168 kts 163°
2026-05-08 16:08 29.56226 -82.13927 1471 ft 168 kts 164°
2026-05-08 16:09 29.55159 -82.13457 1413 ft 164 kts 147°
2026-05-08 16:09 29.54516 -82.13005 1407 ft 166 kts 142°
2026-05-08 16:09 29.53327 -82.11856 2168 ft 174 kts 125°
2026-05-08 16:09 29.52635 -82.10719 2327 ft 172 kts 120°
2026-05-08 16:10 29.51935 -82.09613 2350 ft 174 kts 122°
2026-05-08 16:10 29.51169 -82.08465 2342 ft 188 kts 123°
2026-05-08 16:10 29.50366 -82.07303 2382 ft 168 kts 124°
2026-05-08 16:10 29.49610 -82.06254 2373 ft 174 kts 126°
2026-05-08 16:11 29.48831 -82.05214 2343 ft 177 kts 127°
2026-05-08 16:11 29.47975 -82.04120 2324 ft 190 kts 129°
2026-05-08 16:11 29.47062 -82.02983 2341 ft 196 kts 130°
2026-05-08 16:11 29.46118 -82.01833 2328 ft 198 kts 130°
2026-05-08 16:12 29.45249 -82.00762 2360 ft 162 kts 127°
2026-05-08 16:12 29.44566 -81.99858 2343 ft 143 kts 122°
2026-05-08 16:12 29.43954 -81.99008 2341 ft 135 kts 120°
2026-05-08 16:12 29.43386 -81.98158 2350 ft 133 kts 117°
2026-05-08 16:13 29.42783 -81.97191 2319 ft 166 kts 120°
2026-05-08 16:13 29.42061 -81.96071 2320 ft 172 kts 122°
2026-05-08 16:13 29.41319 -81.94990 2314 ft 172 kts 124°
2026-05-08 16:13 29.40561 -81.93950 2305 ft 172 kts 126°
2026-05-08 16:14 29.39763 -81.92917 2308 ft 174 kts 128°
2026-05-08 16:14 29.38936 -81.91909 2339 ft 172 kts 129°
2026-05-08 16:14 29.38089 -81.90936 2341 ft 172 kts 130°
2026-05-08 16:14 29.37209 -81.89984 2294 ft 174 kts 133°
2026-05-08 16:15 29.36314 -81.89071 2294 ft 171 kts 134°
2026-05-08 16:15 29.35419 -81.88204 2302 ft 165 kts 135°
2026-05-08 16:15 29.34533 -81.87336 2400 ft 160 kts 134°
2026-05-08 16:15 29.33740 -81.86503 2393 ft 150 kts 130°
2026-05-08 16:16 29.33027 -81.85638 2375 ft 151 kts 126°
2026-05-08 16:16 29.32286 -81.84583 2369 ft 183 kts 124°
2026-05-08 16:16 29.31521 -81.83323 2358 ft 198 kts 120°
2026-05-08 16:16 29.30795 -81.81963 2382 ft 189 kts 117°
2026-05-08 16:17 29.30150 -81.80771 2364 ft 175 kts 118°
2026-05-08 16:17 29.29711 -81.80005 2358 ft 172 kts 119°
2026-05-08 16:17 29.28786 -81.78493 2331 ft 174 kts 122°
2026-05-08 16:17 29.28066 -81.77396 2341 ft 175 kts 123°
2026-05-08 16:18 29.27307 -81.76309 2356 ft 174 kts 125°
2026-05-08 16:18 29.26525 -81.75257 2382 ft 173 kts 127°
2026-05-08 16:18 29.25721 -81.74238 2377 ft 172 kts 129°
2026-05-08 16:18 29.24890 -81.73245 2372 ft 175 kts 131°
2026-05-08 16:19 29.24035 -81.72284 2328 ft 173 kts 132°
2026-05-08 16:19 29.23155 -81.71352 2298 ft 173 kts 133°
2026-05-08 16:19 29.22250 -81.70447 2305 ft 173 kts 136°
2026-05-08 16:19 29.21322 -81.69575 2299 ft 173 kts 138°
2026-05-08 16:20 29.20389 -81.68749 2294 ft 173 kts 137°
2026-05-08 16:20 29.19424 -81.67946 2285 ft 171 kts 140°
2026-05-08 16:20 29.18434 -81.67171 2302 ft 172 kts 143°
2026-05-08 16:20 29.17520 -81.66254 2072 ft 184 kts 128°
2026-05-08 16:21 29.16684 -81.65073 1410 ft 192 kts 123°
2026-05-08 16:21 29.15875 -81.63857 1490 ft 189 kts 123°
2026-05-08 16:21 29.15049 -81.62654 1484 ft 191 kts 124°
2026-05-08 16:21 29.14211 -81.61468 1454 ft 192 kts 126°
2026-05-08 16:22 29.13356 -81.60290 1483 ft 191 kts 127°
2026-05-08 16:22 29.12789 -81.59528 1416 ft 193 kts 127°
2026-05-08 16:22 29.11909 -81.58371 1452 ft 193 kts 129°
2026-05-08 16:22 29.10719 -81.56860 1460 ft 193 kts 130°
2026-05-08 16:23 29.09804 -81.55737 1450 ft 190 kts 130°
2026-05-08 16:23 29.09188 -81.55000 1443 ft 191 kts 130°
2026-05-08 16:23 29.07967 -81.53567 1426 ft 192 kts 133°
2026-05-08 16:23 29.07334 -81.52824 1449 ft 194 kts 131°
2026-05-08 16:24 29.06436 -81.51658 1452 ft 197 kts 128°
2026-05-08 16:24 29.05601 -81.50419 1443 ft 197 kts 123°
2026-05-08 16:24 29.04842 -81.49143 1452 ft 192 kts 120°
2026-05-08 16:24 29.04080 -81.47889 1458 ft 193 kts 121°
2026-05-08 16:25 29.03303 -81.46641 1454 ft 192 kts 121°
2026-05-08 16:25 29.02531 -81.45416 1462 ft 191 kts 123°
2026-05-08 16:25 29.01731 -81.44185 1455 ft 193 kts 123°
2026-05-08 16:25 29.00915 -81.42970 1454 ft 193 kts 125°
2026-05-08 16:26 29.00083 -81.41764 1461 ft 194 kts 126°
2026-05-08 16:26 28.99241 -81.40580 1435 ft 192 kts 127°
2026-05-08 16:26 28.98381 -81.39408 1426 ft 192 kts 128°
2026-05-08 16:26 28.97515 -81.38262 1413 ft 192 kts 127°
2026-05-08 16:27 28.96633 -81.37128 1411 ft 190 kts 129°
2026-05-08 16:27 28.95824 -81.35956 1420 ft 191 kts 121°
2026-05-08 16:27 28.95153 -81.34777 1410 ft 192 kts 119°
2026-05-08 16:27 28.94424 -81.33526 1430 ft 191 kts 121°
2026-05-08 16:28 28.93672 -81.32280 1485 ft 188 kts 122°
2026-05-08 16:28 28.92909 -81.31057 1447 ft 188 kts 123°
2026-05-08 16:28 28.92132 -81.29852 1499 ft 186 kts 124°
2026-05-08 16:28 28.91334 -81.28654 1489 ft 189 kts 126°
2026-05-08 16:29 28.90563 -81.27432 1457 ft 189 kts 122°
2026-05-08 16:29 28.89804 -81.26192 1443 ft 193 kts 122°
2026-05-08 16:29 28.89051 -81.24907 1513 ft 193 kts 120°
2026-05-08 16:29 28.88316 -81.23623 1501 ft 193 kts 120°
2026-05-08 16:30 28.87578 -81.22363 1453 ft 192 kts 121°
2026-05-08 16:30 28.86816 -81.21091 1431 ft 194 kts 121°
2026-05-08 16:30 28.86055 -81.19840 1464 ft 189 kts 122°
2026-05-08 16:30 28.85292 -81.18605 1462 ft 191 kts 122°
2026-05-08 16:31 28.84529 -81.17376 1439 ft 191 kts 122°
2026-05-08 16:31 28.83774 -81.16137 1476 ft 191 kts 120°
2026-05-08 16:31 28.83075 -81.14854 1436 ft 192 kts 117°
2026-05-08 16:31 28.82416 -81.13570 1433 ft 189 kts 117°
2026-05-08 16:32 28.81737 -81.12281 1412 ft 191 kts 117°
2026-05-08 16:32 28.81047 -81.10979 1413 ft 191 kts 118°
2026-05-08 16:32 28.80357 -81.09686 1418 ft 190 kts 118°
2026-05-08 16:32 28.79662 -81.08402 1425 ft 191 kts 119°
2026-05-08 16:33 28.78954 -81.07118 1417 ft 189 kts 119°
2026-05-08 16:33 28.78247 -81.05855 1391 ft 190 kts 119°
2026-05-08 16:33 28.77529 -81.04600 1401 ft 188 kts 120°
2026-05-08 16:33 28.76798 -81.03364 1402 ft 187 kts 121°
2026-05-08 16:34 28.76054 -81.02150 1405 ft 187 kts 122°
2026-05-08 16:34 28.75287 -81.00942 1413 ft 188 kts 123°
2026-05-08 16:34 28.74522 -80.99763 1413 ft 187 kts 123°
2026-05-08 16:34 28.73775 -80.98530 1412 ft 187 kts 121°
2026-05-08 16:35 28.73078 -80.97280 1412 ft 187 kts 119°
2026-05-08 16:35 28.72420 -80.96001 1407 ft 187 kts 116°
2026-05-08 16:35 28.71805 -80.94725 1416 ft 185 kts 115°
2026-05-08 16:35 28.71185 -80.93432 1417 ft 187 kts 115°
2026-05-08 16:36 28.70588 -80.92111 1399 ft 188 kts 113°
2026-05-08 16:36 28.70019 -80.90768 1400 ft 189 kts 112°
2026-05-08 16:36 28.69460 -80.89417 1415 ft 186 kts 112°
2026-05-08 16:36 28.68882 -80.88084 1445 ft 187 kts 113°
2026-05-08 16:37 28.68285 -80.86775 1407 ft 189 kts 115°
2026-05-08 16:37 28.67664 -80.85471 1430 ft 188 kts 115°
2026-05-08 16:37 28.67025 -80.84188 1434 ft 189 kts 116°
2026-05-08 16:37 28.66360 -80.82904 1398 ft 189 kts 118°
2026-05-08 16:38 28.65679 -80.81643 1379 ft 187 kts 118°
2026-05-08 16:38 28.64978 -80.80395 1391 ft 186 kts 120°
2026-05-08 16:38 28.64257 -80.79161 1392 ft 188 kts 121°
2026-05-08 16:38 28.63510 -80.77927 1391 ft 190 kts 122°
2026-05-08 16:39 28.62792 -80.76654 1391 ft 191 kts 117°
2026-05-08 16:39 28.62160 -80.75327 1396 ft 189 kts 115°
2026-05-08 16:39 28.61641 -80.74038 1235 ft 179 kts 108°
2026-05-08 16:39 28.61116 -80.72753 1220 ft 177 kts 114°
2026-05-08 16:40 28.60492 -80.71586 1442 ft 167 kts 121°
2026-05-08 16:40 28.59760 -80.70604 1622 ft 161 kts 129°
2026-05-08 16:40 28.59065 -80.69584 1636 ft 166 kts 120°
2026-05-08 16:40 28.58535 -80.68393 1441 ft 171 kts 111°
2026-05-08 16:41 28.58016 -80.67158 1378 ft 172 kts 113°
2026-05-08 16:41 28.57456 -80.65972 1219 ft 169 kts 110°
2026-05-08 16:41 28.57130 -80.64703 1035 ft 162 kts 89°
2026-05-08 16:42 28.57253 -80.62201 1077 ft 168 kts 68°
2026-05-08 16:42 28.57886 -80.61070 917 ft 174 kts 36°
2026-05-08 16:42 28.58881 -80.60339 622 ft 172 kts 19°
2026-05-08 16:42 28.59962 -80.60151 620 ft 155 kts 334°
2026-05-08 16:43 28.60919 -80.60703 516 ft 150 kts 336°
2026-05-08 16:43 28.61915 -80.61057 458 ft 150 kts 335°
2026-05-08 16:43 28.62800 -80.61661 547 ft 150 kts 316°
2026-05-08 16:43 28.63031 -80.62643 648 ft 131 kts 231°
2026-05-08 16:44 28.62505 -80.63586 557 ft 159 kts 229°
2026-05-08 16:44 28.61784 -80.64685 611 ft 182 kts 226°
2026-05-08 16:44 28.61044 -80.65716 965 ft 140 kts 223°
2026-05-08 16:44 28.60507 -80.66558 697 ft 127 kts 222°
2026-05-08 16:45 28.59998 -80.67322 663 ft 110 kts 214°
2026-05-08 16:45 28.59608 -80.67872 567 ft 67 kts 267°
2026-05-08 16:45 28.59460 -80.68166 228 ft 28 kts 339°
2026-05-08 16:45 28.59659 -80.68259 129 ft 22 kts 344°
2026-05-08 16:46 28.59744 -80.68285 27 ft 3 kts 334°
2026-05-08 16:46 28.59764 -80.68265 14 ft 11 kts 79°
2026-05-08 16:46 28.59747 -80.68167 12 ft 16 kts 100°
2026-05-08 16:46 28.59802 -80.68075 11 ft 16 kts 27°
2026-05-08 16:47 28.59915 -80.68034 11 ft 16 kts
2026-05-08 16:47 28.59990 -80.68001 11 ft 9 kts 61°
2026-05-08 16:47 28.60019 -80.67956 12 ft 6 kts
2026-05-08 16:47 28.60047 -80.67965 12 ft 4 kts 317°
2026-05-08 16:48 28.60038 -80.67998 12 ft 3 kts 231°
2026-05-08 16:48 28.60019 -80.67991 11 ft 0 kts 156°
2026-05-08 16:48 28.60023 -80.67994 12 ft 0 kts 138°
2026-05-08 16:49 28.60018 -80.67989 12 ft 0 kts 150°